Kosmos-1598

operational
NORAD ID: 15292 Int'l Des: 1984-100 Owner: VMF Country: SU
LEOCIRCULARPOLAR

About Kosmos-1598

Description loading...

Live Position

Loading 3D Globe...

Upcoming Passes

Altitude History

Altitude vs Time

uPlot chart will show altitude changes over time

Two-Line Element Set

1 15292U 84100A 26050.09963953 .00000061 00000-0 49962-4 0 9990
2 15292 82.9416 259.7608 0032433 359.7254 120.5093 13.73183769 75783
Epoch: Feb 19, 2026 • Age: 8 hours

Current Status

Altitude 998.7 km
Velocity 7.36 km/s
Sub-Earth Point -59.47°S, 55.83°W
Launch Date Sep 13, 1984
Age 41.4 years
Type other

Technical Details

Classification Payload
Mass 800.00 kg
Dry Mass 800.00 kg
Total Mass 800.00 kg
Length 5.00 m
Diameter 2.10 m
Span 17.00 m
Shape Cyl + Ant
Manufacturer OAZ
Bus Type KAUR-1 11F627
Phase Status In Orbit
Owner/State VMF/SU

Large Constellations

Loading constellations...